Theta_e
281 282 282 284 285 286 287 288 287 283 284 288 281 284 285 286 288 288 290 293 300 304 306 305 303 303 303 303 305 306 307 306 306 305 305 305 304 304
280 280 280 281 282 283 284 285 286 286 283 285 288 283 284 285 286 287 288 292 295 300 302 303 302 301 301 302 303 304 305 305 305 304 304 304 303 304
278 278 279 280 280 281 281 282 284 284 283 285 286 284 282 283 284 286 287 288 289 296 299 301 301 300 300 300 301 302 303 303 303 303 303 303 303 303
277 278 278 280 279 279 280 281 281 283 282 281 285 285 281 282 283 284 285 287 287 291 297 299 300 299 299 299 300 300 301 301 302 302 301 301 301 302
277 277 278 278 278 279 278 280 281 283 283 282 282 284 284 281 281 282 283 285 285 289 293 296 298 298 299 298 299 299 299 299 300 300 300 299 299 300
277 277 277 277 277 278 279 279 280 280 281 281 281 282 283 283 281 282 281 283 283 284 287 290 294 295 297 298 297 296 297 297 298 298 298 297 298 298
275 276 277 277 280 280 279 278 279 279 279 279 280 281 281 278 280 282 282 283 282 284 282 284 287 289 291 295 293 294 296 297 297 297 296 296 296 296
273 274 274 275 276 279 280 281 281 278 279 280 280 279 280 282 282 283 282 281 279 283 282 281 284 285 287 289 293 294 295 296 296 295 295 294 295 295
271 271 272 273 273 273 275 277 278 279 281 279 280 281 281 282 283 281 282 283 283 282 283 281 282 282 285 287 292 294 294 295 295 294 294 294 294 293
269 270 270 270 271 271 271 271 272 273 275 276 277 279 282 283 284 284 283 283 284 284 283 280 283 281 283 285 290 293 294 294 294 294 294 294 293 293
269 269 269 269 272 274 272 271 271 272 276 278 279 280 282 284 286 284 283 281 280 281 280 282 283 282 282 282 284 290 293 294 294 294 293 293 293 292
268 269 271 271 273 275 272 270 268 270 271 272 274 276 278 279 283 285 284 282 281 280 283 280 281 279 276 281 282 283 287 292 293 294 293 293 292 289
267 268 270 273 274 275 275 272 271 272 273 272 272 272 275 277 279 282 283 283 283 282 280 281 281 280 279 276 279 281 283 286 289 291 293 293 292 290
268 269 270 273 275 276 275 276 277 277 274 272 270 270 272 275 277 280 283 284 285 285 286 283 277 281 279 279 277 279 280 283 286 287 288 290 292 292
271 272 275 276 277 276 276 276 274 271 270 268 267 268 270 272 276 279 282 283 284 285 286 283 283 282 281 279 278 277 277 281 284 285 286 286 287 287
273 272 274 276 277 276 273 274 272 272 271 270 269 270 271 271 272 275 279 280 281 282 285 286 283 284 280 280 280 276 279 278 282 283 284 285 286 287
273 271 268 268 267 268 270 269 269 269 268 268 268 268 269 269 270 273 279 280 279 279 281 283 283 284 283 281 279 279 278 279 280 282 282 281 283 284
268 263 262 263 264 265 265 266 269 268 268 268 268 268 268 269 271 274 279 280 279 279 280 277 280 279 274 275 282 278 278 278 278 281 280 279 279 281
259 260 260 261 262 263 264 265 265 269 270 269 269 269 270 271 272 275 276 279 279 279 279 275 277 276 274 273 272 281 276 277 277 278 278 278 276 276
259 258 259 260 261 262 263 265 268 269 268 269 269 270 272 273 276 276 278 279 279 277 277 273 276 276 275 273 270 270 281 276 275 276 276 277 277 279
258 258 259 259 260 261 263 265 267 269 268 269 270 271 273 275 277 277 277 276 277 276 274 270 275 278 279 275 270 269 275 280 278 276 275 273 271 272
258 259 259 260 260 261 262 264 265 268 270 270 271 273 274 275 276 277 278 276 276 276 273 273 275 274 274 273 270 267 270 274 278 279 278 275 271 268
259 259 260 260 261 262 263 263 264 265 267 269 271 274 276 276 275 275 275 276 276 274 272 270 271 273 273 273 269 269 269 271 271 271 272 275 275 275
Wind_Speed
6 6 4 4 4 4 5 6 7 10 13 7 4 5 5 5 11 9 11 16 24 23 21 22 22 21 21 21 21 20 19 18 17 16 15 14 13 13
5 6 5 4 5 4 4 5 6 9 13 3 8 5 5 5 8 9 11 18 21 25 23 22 23 23 23 23 22 22 21 20 19 18 18 17 16 16
8 6 9 6 6 5 4 4 7 6 12 10 7 5 5 7 7 8 9 10 11 24 26 25 23 23 23 24 24 24 23 22 21 20 20 19 18 18
11 11 11 8 8 7 5 8 8 8 8 14 11 8 8 7 7 9 9 9 10 18 27 27 25 25 24 24 24 24 23 23 23 22 21 20 20 19
11 11 13 12 12 9 7 9 8 8 8 10 12 7 7 4 6 7 7 9 8 17 24 27 27 27 25 24 24 24 23 22 22 21 22 22 21 20
13 13 13 13 13 12 11 11 10 10 11 11 11 11 9 6 6 7 6 6 8 7 16 17 22 26 27 27 26 25 24 23 24 23 21 21 22 22
15 15 14 16 23 21 12 12 13 12 11 11 13 11 10 4 8 5 10 7 9 9 9 10 11 12 15 26 23 26 26 26 25 24 23 23 23 22
17 15 15 17 19 26 27 28 23 16 17 14 14 15 17 9 8 10 9 8 9 8 9 10 10 13 13 13 24 27 28 28 28 27 26 26 25 23
16 16 15 12 17 16 22 28 26 28 31 20 20 19 19 14 9 11 13 12 14 4 10 11 11 15 13 14 28 29 30 31 30 29 28 28 27 26
16 16 16 17 15 17 17 17 17 18 17 15 20 21 18 17 16 14 13 16 13 8 11 13 8 13 11 11 28 30 31 32 32 31 30 29 28 27
15 16 15 16 21 26 18 17 17 15 17 29 34 37 40 39 29 16 14 12 14 12 9 10 9 8 8 10 12 30 31 33 33 33 31 30 29 27
14 15 21 23 28 27 18 16 18 15 16 16 16 21 27 26 34 24 17 16 14 13 11 12 11 4 4 6 10 10 15 30 31 32 32 31 29 13
12 11 11 26 30 29 29 17 18 20 21 17 16 15 16 18 16 17 20 17 15 15 7 11 10 9 7 2 3 9 12 12 16 21 32 32 32 25
14 13 14 30 32 32 27 32 34 31 14 11 12 13 14 14 14 17 19 17 17 18 12 15 5 12 11 10 9 5 8 9 11 13 14 23 32 32
14 21 35 36 36 29 31 32 29 14 14 14 15 16 15 15 17 18 20 20 19 18 15 13 13 10 10 11 8 5 7 9 10 12 12 15 15 14
19 16 21 27 30 29 21 20 14 14 15 15 14 15 14 15 14 16 17 13 12 11 14 17 16 15 11 11 10 7 9 8 12 11 11 11 13 14
21 11 12 12 13 14 14 12 13 13 13 14 15 14 14 14 16 16 17 14 13 12 10 10 13 15 12 12 11 11 11 10 10 12 11 12 12 12
12 10 10 10 12 13 13 14 14 14 13 12 12 13 14 14 16 16 17 15 12 12 10 7 9 7 2 2 12 11 10 11 8 12 9 11 11 9
6 9 10 11 12 13 13 14 15 13 9 10 11 13 14 15 21 16 16 9 11 10 9 8 10 9 11 13 3 11 11 10 9 11 10 11 10 8
7 9 11 11 12 13 14 13 15 10 9 10 11 12 14 15 8 11 10 12 12 7 8 8 10 12 12 13 7 3 17 11 10 11 9 6 4 14
10 10 10 11 12 12 13 14 16 10 9 10 11 11 12 11 9 7 8 10 8 7 9 10 13 16 5 6 5 3 6 18 13 12 11 10 10 8
9 10 11 11 11 12 12 12 13 14 11 10 10 11 11 10 9 7 6 7 8 7 8 4 6 6 5 5 6 7 4 5 9 13 18 12 10 12
10 10 11 10 10 11 11 11 12 12 11 11 10 10 9 8 6 4 4 6 5 5 6 6 5 4 4 3 8 8 8 10 8 9 7 10 9 9
Wind_Direction
321 319 313 295 287 270 266 260 262 288 287 281 268 249 247 236 232 217 220 227 229 231 230 228 228 229 229 228 230 228 224 225 224 219 223 223 224 222
312 305 293 279 285 275 262 260 251 259 275 285 274 255 263 256 248 229 228 227 225 226 228 226 226 227 227 226 226 226 222 223 222 218 218 215 215 216
307 289 290 279 279 270 259 247 257 246 266 279 269 243 252 249 250 228 227 226 229 224 223 222 220 222 226 229 225 223 221 219 218 217 219 216 214 212
302 298 293 297 285 276 265 268 257 251 259 270 271 269 241 237 237 240 232 228 229 229 225 224 219 219 220 224 227 225 221 219 218 214 215 216 214 212
286 284 288 289 286 285 274 276 274 269 257 262 272 264 264 227 253 246 233 235 228 229 230 227 223 220 218 221 225 227 223 219 217 214 210 213 214 210
288 285 284 282 283 285 279 276 275 273 273 268 265 267 254 239 233 251 250 228 244 232 234 232 225 220 217 217 221 221 222 220 218 212 210 211 213 210
288 286 283 282 283 283 285 284 281 276 272 272 272 269 257 217 232 228 247 241 223 215 226 229 226 221 219 220 219 216 217 215 217 215 209 208 211 208
298 298 299 295 289 287 285 284 279 276 272 270 269 266 268 257 235 239 237 232 255 187 213 234 213 222 219 217 215 212 213 214 212 214 210 207 209 207
294 296 297 295 299 294 292 289 289 285 279 281 274 264 269 262 263 237 236 231 240 206 205 230 201 226 218 221 216 214 211 212 211 210 212 208 207 205
294 294 293 294 291 291 286 280 274 271 273 270 275 279 270 272 264 255 246 242 246 236 192 238 195 230 219 221 219 217 213 211 210 210 211 209 207 204
292 288 287 287 287 289 285 285 282 280 277 275 272 275 272 274 260 261 243 239 244 232 199 235 227 222 210 223 217 216 216 213 209 208 208 208 207 203
286 282 280 285 289 290 288 285 283 284 283 285 279 277 273 271 268 253 250 244 239 244 214 213 222 154 224 219 209 216 212 218 214 210 206 205 203 198
280 280 278 283 288 289 287 281 275 277 274 276 271 267 273 265 256 251 247 240 240 233 194 194 213 200 215 103 220 199 210 207 212 212 210 204 199 196
287 281 278 280 280 277 275 269 269 272 273 278 278 276 271 271 261 252 247 242 242 240 222 197 223 204 208 217 222 173 210 214 211 208 203 206 204 203
280 280 289 291 291 292 289 287 285 276 270 265 262 263 261 264 283 269 250 229 239 241 226 206 214 212 200 214 202 171 168 205 205 207 204 199 197 197
282 279 279 288 292 293 288 277 270 267 259 257 260 264 265 259 254 262 263 221 220 226 220 220 213 210 209 210 198 177 180 187 191 199 201 203 202 201
304 313 313 307 301 296 291 276 265 258 255 256 257 260 262 259 254 252 253 232 217 220 217 199 202 203 205 195 202 198 187 191 190 193 191 196 203 199
324 322 305 302 299 301 299 292 289 255 245 251 256 261 259 252 256 251 256 212 211 212 203 183 178 175 121 262 213 195 197 195 180 188 188 196 192 194
316 307 300 300 302 300 297 292 285 282 260 252 257 261 263 261 246 237 238 231 212 204 197 178 184 187 199 213 170 221 188 187 174 186 184 197 186 178
308 306 304 305 303 303 305 300 301 277 263 260 260 262 269 263 245 231 240 222 203 188 180 177 191 198 203 208 181 212 203 176 178 183 180 167 153 164
316 312 307 307 308 307 305 308 313 289 270 270 267 270 277 289 293 235 220 193 197 188 186 187 203 200 178 96 127 152 185 195 191 178 166 162 159 156
313 311 311 309 306 307 310 313 318 323 300 279 278 278 276 278 279 291 226 189 197 189 199 175 157 152 160 168 163 144 143 151 180 181 177 153 173 182
314 314 313 311 310 313 316 320 320 319 322 320 323 318 304 280 259 237 198 207 202 167 152 140 147 163 172 163 143 147 148 144 138 128 100 108 149 169